SCP
0 -0 -0 -0 -0 -0 -0 -0 -0 0 0 0 0 0 0 0 0 0 0 -0 -0 0
0 0 -0 -0 -0 -0 -0 -0 -0 -0 0 0 0 0 0 0 0 0 0 0 0 0
0 0 0 0 -0 -0 -0 -0 -0 -0 -0 0 0 0 0 0 0 0 0 0 0 0
0 0 0 0 0 -0 -0 -0 -0 -0 -0 0 0 0 0 0 0 0 0 0 0 0
0 0 0 0 0 0 -0 -0 -0 -0 -0 -0 -0 -0 -0 0 0 0 0 0 0 0
0 0 0 0 0 0 0 0 -0 -0 -0 -0 -0 -0 -0 0 0 0 0 0 0 0
0 0 0 0 0 0 0 0 0 0 -0 -0 -0 0 -0 -0 0 0 0 0 0 0
0 0 0 0 0 0 0 0 0 0 0 -0 -0 0 0 -0 0 0 0 0 0 0
0 0 0 0 0 0 0 0 0 0 0 0 0 0 -0 -0 -0 -0 -0 0 0 0
0 0 0 0 0 0 0 0 0 0 0 0 0 0 -0 -0 -0 -0 -0 -0 -0 0
0 0 0 0 0 0 0 0 0 0 0 0 0 -0 -0 -0 -0 -0 0 0 -0 0
0 0 0 0 0 0 0 0 0 0 0 0 0 0 -0 -0 -0 -0 0 0 0 0
0 0 0 0 0 0 0 0 0 0 0 0 0 0 0 -0 -0 -0 0 0 -0 -0
0 0 0 0 0 0 0 0 0 0 0 0 0 0 0 0 0 -0 -0 0 0 0
Wind_Speed_500mb
42 43 41 44 43 38 42 45 43 43 36 35 34 37 41 32 46 68 80 110 127 88
44 43 43 41 40 43 41 39 45 44 45 30 28 31 40 39 46 36 40 52 84 99
45 44 43 43 42 41 43 43 38 45 51 38 25 29 42 44 35 44 38 34 65 69
43 43 42 42 45 45 42 43 42 37 46 43 36 35 40 44 42 39 37 38 42 37
41 41 41 42 44 45 44 43 39 42 47 40 39 44 47 49 43 45 43 38 36 33
41 41 40 42 44 44 45 45 43 40 47 49 38 42 48 52 51 45 43 39 41 40
41 43 39 42 43 41 41 44 45 43 40 46 54 48 46 48 52 51 45 37 37 34
38 41 41 42 43 41 41 42 44 46 42 42 42 53 58 53 50 51 48 46 39 39
36 40 41 40 42 41 43 44 43 44 43 50 47 50 58 64 54 48 47 49 49 47
36 38 37 36 37 42 48 44 46 44 42 45 48 52 61 66 62 55 44 43 49 50
36 38 37 38 36 42 45 43 48 48 43 46 41 49 58 66 68 62 50 44 44 46
42 39 37 37 41 46 45 45 43 43 49 52 49 45 50 63 69 62 59 56 50 44
46 41 39 41 45 45 43 48 46 49 48 56 49 36 50 58 64 67 64 65 66 57
39 39 40 43 48 46 47 46 50 54 53 55 49 49 48 54 62 62 61 64 71 70
Wind_Direction_500mb
348 348 347 348 352 348 346 352 341 333 322 319 331 315 304 294 273 271 263 264 283 272
345 344 343 346 345 347 342 348 348 352 340 325 321 327 318 301 291 290 276 262 256 257
340 341 341 342 340 343 344 346 351 351 338 345 339 317 309 312 307 278 281 284 268 271
335 334 338 341 340 341 344 344 350 344 335 347 352 335 319 316 321 324 302 293 292 290
328 330 335 336 337 339 342 342 346 338 339 343 343 339 340 337 338 332 330 327 309 301
325 326 333 333 333 337 339 340 341 341 336 340 339 341 341 341 345 343 339 332 330 320
321 323 329 327 329 337 337 334 335 336 338 338 340 343 348 345 340 342 345 340 334 325
317 320 322 322 328 332 333 330 329 335 340 339 340 333 337 347 347 342 338 340 335 330
310 313 315 321 323 326 322 328 327 335 337 335 338 332 329 333 341 343 340 340 334 331
303 304 308 312 315 319 317 322 322 327 329 327 332 329 321 327 333 337 337 336 330 332
292 297 305 308 312 304 312 315 317 321 320 317 321 312 320 320 322 327 328 325 322 326
284 294 300 304 301 307 311 313 314 311 307 308 310 312 314 309 312 317 319 316 321 323
290 291 297 299 304 307 310 309 306 305 306 309 316 320 302 308 316 317 316 312 314 317
281 289 296 299 299 307 303 303 302 303 310 314 324 317 311 309 309 315 315 313 312 312
Wind_Speed_850mb
42 43 41 44 43 38 42 45 43 43 36 35 34 37 41 32 46 68 80 110 127 88
44 43 43 41 40 43 41 39 45 44 45 30 28 31 40 39 46 36 40 52 84 99
45 44 43 43 42 41 43 43 38 45 51 38 25 29 42 44 35 44 38 34 65 69
43 43 42 42 45 45 42 43 42 37 46 43 36 35 40 44 42 39 37 38 42 37
41 41 41 42 44 45 44 43 39 42 47 40 39 44 47 49 43 45 43 38 36 33
41 41 40 42 44 44 45 45 43 40 47 49 38 42 48 52 51 45 43 39 41 40
41 43 39 42 43 41 41 44 45 43 40 46 54 48 46 48 52 51 45 37 37 34
38 41 41 42 43 41 41 42 44 46 42 42 42 53 58 53 50 51 48 46 39 39
36 40 41 40 42 41 43 44 43 44 43 50 47 50 58 64 54 48 47 49 49 47
36 38 37 36 37 42 48 44 46 44 42 45 48 52 61 66 62 55 44 43 49 50
36 38 37 38 36 42 45 43 48 48 43 46 41 49 58 66 68 62 50 44 44 46
42 39 37 37 41 46 45 45 43 43 49 52 49 45 50 63 69 62 59 56 50 44
46 41 39 41 45 45 43 48 46 49 48 56 49 36 50 58 64 67 64 65 66 57
39 39 40 43 48 46 47 46 50 54 53 55 49 49 48 54 62 62 61 64 71 70
Wind_Direction_850mb
348 348 347 348 352 348 346 352 341 333 322 319 331 315 304 294 273 271 263 264 283 272
345 344 343 346 345 347 342 348 348 352 340 325 321 327 318 301 291 290 276 262 256 257
340 341 341 342 340 343 344 346 351 351 338 345 339 317 309 312 307 278 281 284 268 271
335 334 338 341 340 341 344 344 350 344 335 347 352 335 319 316 321 324 302 293 292 290
328 330 335 336 337 339 342 342 346 338 339 343 343 339 340 337 338 332 330 327 309 301
325 326 333 333 333 337 339 340 341 341 336 340 339 341 341 341 345 343 339 332 330 320
321 323 329 327 329 337 337 334 335 336 338 338 340 343 348 345 340 342 345 340 334 325
317 320 322 322 328 332 333 330 329 335 340 339 340 333 337 347 347 342 338 340 335 330
310 313 315 321 323 326 322 328 327 335 337 335 338 332 329 333 341 343 340 340 334 331
303 304 308 312 315 319 317 322 322 327 329 327 332 329 321 327 333 337 337 336 330 332
292 297 305 308 312 304 312 315 317 321 320 317 321 312 320 320 322 327 328 325 322 326
284 294 300 304 301 307 311 313 314 311 307 308 310 312 314 309 312 317 319 316 321 323
290 291 297 299 304 307 310 309 306 305 306 309 316 320 302 308 316 317 316 312 314 317
281 289 296 299 299 307 303 303 302 303 310 314 324 317 311 309 309 315 315 313 312 312